When you browse on this site, cookies collect data to enhance your experience and personalize the content and advertising you see.
Visit our Privacy Policy to learn more. By continuing to use the site, you agree to this use of cookies and data.
  • En España
  • Lista de países
  • Para 7 días
  • Temperatura del agua
  • Mapa Satelital
  • El tiempo en el mapa
  • Informadores
  • user-avatar
    Iniciar sesión

    Tiempo cada hora Verbovka

    Hoy, 19 Julio, Viernes

    Tiempo Temperatura Precipitaciones Viento Presión Humedad
    00:00 +13°C° 0.7 mm 5 mps 734 mmHg 97%
    01:00 +13°C° 0.7 mm 5 mps 734 mmHg 97%
    02:00 +13°C° 0.7 mm 5 mps 734 mmHg 97%
    03:00 +13°C° 0.5 mm 5 mps 734 mmHg 97%
    04:00 +13°C° 0.5 mm 5 mps 734 mmHg 97%
    05:00 +13°C° 0.5 mm 5 mps 734 mmHg 97%
    06:00 +14°C° 0.2 mm 5 mps 735 mmHg 96%
    07:00 +14°C° 0.2 mm 5 mps 735 mmHg 96%
    08:00 +14°C° 0.2 mm 5 mps 736 mmHg 95%
    09:00 +15°C° 0.3 mm 5 mps 736 mmHg 93%
    10:00 +15°C° 0.3 mm 6 mps 736 mmHg 92%
    11:00 +16°C° 0.3 mm 6 mps 737 mmHg 90%
    12:00 +16°C° 0.2 mm 6 mps 737 mmHg 88%
    13:00 +16°C° 0.2 mm 6 mps 737 mmHg 86%
    14:00 +16°C° 0.2 mm 6 mps 738 mmHg 84%
    15:00 +16°C° 0 mm 6 mps 738 mmHg 82%
    16:00 +17°C° 0 mm 6 mps 738 mmHg 79%
    17:00 +17°C° 0 mm 6 mps 739 mmHg 77%
    18:00 +16°C° 0 mm 5 mps 739 mmHg 79%
    19:00 +15°C° 0 mm 4 mps 739 mmHg 82%
    20:00 +16°C° 0 mm 3 mps 739 mmHg 85%
    21:00 +14°C° 0 mm 3 mps 739 mmHg 86%
    22:00 +13°C° 0 mm 4 mps 740 mmHg 88%
    23:00 +13°C° 0 mm 4 mps 740 mmHg 89%

    Mañana, 20 Julio, Sábado

    Tiempo Temperatura Precipitaciones Viento Presión Humedad
    00:00 +12°C° 0 mm 4 mps 740 mmHg 91%
    01:00 +12°C° 0 mm 4 mps 740 mmHg 92%
    02:00 +12°C° 0 mm 3 mps 740 mmHg 94%
    03:00 +12°C° 0 mm 3 mps 741 mmHg 94%
    04:00 +12°C° 0 mm 3 mps 741 mmHg 94%
    05:00 +12°C° 0 mm 3 mps 741 mmHg 93%
    06:00 +13°C° 0 mm 3 mps 741 mmHg 89%
    07:00 +16°C° 0 mm 3 mps 742 mmHg 85%
    08:00 +17°C° 0 mm 4 mps 742 mmHg 81%
    09:00 +18°C° 0 mm 4 mps 742 mmHg 76%
    10:00 +20°C° 0 mm 4 mps 743 mmHg 71%
    11:00 +21°C° 0 mm 5 mps 743 mmHg 65%
    12:00 +22°C° 0 mm 5 mps 743 mmHg 64%
    13:00 +22°C° 0 mm 5 mps 743 mmHg 62%
    14:00 +22°C° 0 mm 5 mps 743 mmHg 61%
    15:00 +22°C° 0 mm 5 mps 743 mmHg 63%
    16:00 +22°C° 0 mm 4 mps 743 mmHg 66%
    17:00 +21°C° 0 mm 4 mps 744 mmHg 69%
    18:00 +20°C° 0 mm 3 mps 744 mmHg 73%
    19:00 +18°C° 0 mm 3 mps 744 mmHg 78%
    20:00 +16°C° 0 mm 3 mps 744 mmHg 82%
    21:00 +16°C° 0 mm 3 mps 744 mmHg 84%
    22:00 +14°C° 0 mm 3 mps 744 mmHg 85%
    23:00 +13°C° 0 mm 3 mps 744 mmHg 86%

    Pasado mañana, 21 Julio, Domingo

    Tiempo Temperatura Precipitaciones Viento Presión Humedad
    00:00 +13°C° 0 mm 3 mps 745 mmHg 89%
    01:00 +14°C° 0 mm 2 mps 745 mmHg 91%
    02:00 +13°C° 0 mm 2 mps 745 mmHg 93%
    03:00 +13°C° 0 mm 2 mps 745 mmHg 93%
    04:00 +13°C° 0 mm 2 mps 745 mmHg 94%
    05:00 +13°C° 0 mm 2 mps 745 mmHg 94%
    06:00 +15°C° 0 mm 1 mps 745 mmHg 89%
    07:00 +18°C° 0 mm 1 mps 745 mmHg 83%
    08:00 +20°C° 0 mm 1 mps 746 mmHg 78%
    09:00 +21°C° 0 mm 1 mps 746 mmHg 73%
    10:00 +21°C° 0 mm 2 mps 746 mmHg 68%
    11:00 +23°C° 0 mm 2 mps 746 mmHg 63%
    12:00 +24°C° 0 mm 2 mps 746 mmHg 62%
    13:00 +24°C° 0 mm 2 mps 745 mmHg 61%
    14:00 +25°C° 0 mm 2 mps 745 mmHg 60%
    15:00 +25°C° 0 mm 2 mps 745 mmHg 62%
    16:00 +24°C° 0 mm 2 mps 745 mmHg 65%
    17:00 +24°C° 0 mm 2 mps 745 mmHg 67%
    18:00 +22°C° 0 mm 1 mps 745 mmHg 73%
    19:00 +21°C° 0 mm 1 mps 745 mmHg 79%
    20:00 +19°C° 0 mm 1 mps 745 mmHg 84%
    21:00 +18°C° 0 mm 1 mps 745 mmHg 85%
    22:00 +16°C° 0 mm 0 mps 745 mmHg 86%
    23:00 +15°C° 0 mm 0 mps 745 mmHg 87%

    22 Julio, Lunes

    Tiempo Temperatura Precipitaciones Viento Presión Humedad
    00:00 +15°C° 0 mm 0 mps 745 mmHg 88%
    01:00 +15°C° 0 mm 1 mps 744 mmHg 89%
    02:00 +15°C° 0 mm 1 mps 744 mmHg 90%
    03:00 +15°C° 0 mm 1 mps 744 mmHg 90%
    04:00 +15°C° 0 mm 1 mps 744 mmHg 91%
    05:00 +15°C° 0 mm 2 mps 743 mmHg 91%
    06:00 +17°C° 0 mm 2 mps 743 mmHg 88%
    07:00 +18°C° 0 mm 2 mps 743 mmHg 85%
    08:00 +20°C° 0 mm 2 mps 743 mmHg 82%
    09:00 +20°C° 0.7 mm 3 mps 743 mmHg 81%
    10:00 +21°C° 0.7 mm 3 mps 743 mmHg 81%
    11:00 +21°C° 0.7 mm 3 mps 742 mmHg 81%
    12:00 +20°C° 0.4 mm 2 mps 742 mmHg 85%
    13:00 +19°C° 0.4 mm 2 mps 742 mmHg 89%
    14:00 +19°C° 0.4 mm 1 mps 742 mmHg 92%
    15:00 +19°C° 0.7 mm 1 mps 742 mmHg 94%
    16:00 +19°C° 0.7 mm 1 mps 741 mmHg 95%
    17:00 +17°C° 0.7 mm 2 mps 741 mmHg 96%
    18:00 +17°C° 0.2 mm 2 mps 741 mmHg 96%
    19:00 +17°C° 0.2 mm 2 mps 741 mmHg 96%
    20:00 +17°C° 0.2 mm 2 mps 741 mmHg 97%
    21:00 +17°C° 0.1 mm 2 mps 741 mmHg 97%
    22:00 +16°C° 0.1 mm 2 mps 740 mmHg 97%
    23:00 +16°C° 0.1 mm 2 mps 740 mmHg 97%

    23 Julio, Martes

    Tiempo Temperatura Precipitaciones Viento Presión Humedad
    00:00 +16°C° 0.1 mm 2 mps 740 mmHg 98%
    01:00 +16°C° 0.1 mm 2 mps 740 mmHg 98%
    02:00 +16°C° 0.1 mm 2 mps 740 mmHg 98%
    03:00 +16°C° 0.2 mm 2 mps 740 mmHg 98%
    04:00 +16°C° 0.2 mm 2 mps 740 mmHg 98%
    05:00 +16°C° 0.2 mm 3 mps 740 mmHg 98%
    06:00 +16°C° 0.3 mm 3 mps 740 mmHg 97%
    07:00 +16°C° 0.3 mm 3 mps 740 mmHg 97%
    08:00 +15°C° 0.3 mm 4 mps 740 mmHg 96%
    09:00 +15°C° 0.1 mm 4 mps 740 mmHg 95%
    10:00 +15°C° 0.1 mm 4 mps 740 mmHg 94%
    11:00 +17°C° 0.1 mm 3 mps 741 mmHg 92%
    12:00 +17°C° 0 mm 3 mps 741 mmHg 90%
    13:00 +18°C° 0 mm 3 mps 741 mmHg 87%
    14:00 +18°C° 0 mm 2 mps 741 mmHg 85%
    15:00 +19°C° 0.1 mm 2 mps 741 mmHg 83%
    16:00 +20°C° 0.1 mm 2 mps 741 mmHg 81%
    17:00 +21°C° 0.1 mm 2 mps 741 mmHg 79%
    18:00 +20°C° 0.1 mm 1 mps 741 mmHg 80%
    19:00 +19°C° 0.1 mm 1 mps 741 mmHg 82%
    20:00 +18°C° 0.1 mm 1 mps 741 mmHg 84%
    21:00 +16°C° 0 mm 1 mps 741 mmHg 86%
    22:00 +16°C° 0 mm 1 mps 741 mmHg 87%
    23:00 +15°C° 0 mm 2 mps 741 mmHg 88%

    24 Julio, Miércoles

    Tiempo Temperatura Precipitaciones Viento Presión Humedad
    00:00 +14°C° 0 mm 2 mps 741 mmHg 89%
    01:00 +14°C° 0 mm 2 mps 741 mmHg 91%
    02:00 +13°C° 0 mm 2 mps 741 mmHg 92%
    03:00 +13°C° 0 mm 2 mps 741 mmHg 92%
    04:00 +12°C° 0 mm 3 mps 741 mmHg 93%
    05:00 +12°C° 0 mm 3 mps 741 mmHg 93%
    06:00 +13°C° 0 mm 3 mps 741 mmHg 90%
    07:00 +14°C° 0 mm 3 mps 741 mmHg 87%
    08:00 +16°C° 0 mm 3 mps 741 mmHg 84%
    09:00 +17°C° 0 mm 4 mps 741 mmHg 80%
    10:00 +18°C° 0 mm 4 mps 741 mmHg 75%
    11:00 +20°C° 0 mm 4 mps 741 mmHg 70%
    12:00 +20°C° 0.3 mm 3 mps 741 mmHg 71%
    13:00 +21°C° 0.3 mm 3 mps 741 mmHg 71%
    14:00 +21°C° 0.3 mm 3 mps 741 mmHg 71%
    15:00 +21°C° 0.7 mm 3 mps 741 mmHg 75%
    16:00 +20°C° 0.7 mm 3 mps 741 mmHg 78%
    17:00 +20°C° 0.7 mm 3 mps 741 mmHg 81%
    18:00 +19°C° 0.2 mm 3 mps 741 mmHg 84%
    19:00 +18°C° 0.2 mm 3 mps 740 mmHg 87%
    20:00 +17°C° 0.2 mm 3 mps 740 mmHg 91%
    21:00 +17°C° 0.1 mm 3 mps 740 mmHg 92%
    22:00 +16°C° 0.1 mm 3 mps 740 mmHg 93%
    23:00 +15°C° 0.1 mm 4 mps 740 mmHg 94%
    Mostrar más